Location: Pel�-Koumbol�
(14.9505°N, 3.0798°W)
Time: 06:35:10
(UTC+00:00)

STARLINK-1011 - Pass Details

Date: 17 February 2020
Orbit: 549 x 550 km, 53.0° (Epoch: 09 April)

Event Time Altitude Azimuth Distance (km) Brightness Sun altitude
Exits shadow 05:39:09 17° 317° (NW) 1,406 5.2 -14.3°
Maximum altitude 05:42:12 72° 236° (SW) 578 3.5 -13.6°
Drops below altitude 10° 05:46:19 10° 151° (SSE) 1,814 6.8 -12.6°
Sets 05:48:32 0° 149° (SSE) 2,706 7.8 -12.1°
